Weather in Stepanenki

Russia / Udmurt Republic     58°13′52″N   53°33′34″E
temp.,
°C
wind,
m/s
gust,
m/s
humid.,
%
clouds,
%
prec.,
mm/h
press.,
hPa
HPBL,
m
17 june, thu
thu1701:00+15nnw41099100 0.3 1007495
04:00+11n412950 0.4 1010533
07:00+13nnw410830 0.0 1011475
10:00+18nnw57455 0.0 10121714
13:00+20nw56355 0.0 10122592
16:00+18nw574659 0.0 10131813
19:00+17nw47515 0.0 10141583
22:00+12nnw497818 0.0 1017554
18 june, fri
fri1801:00+9nnw311955 0.0 1019458
04:00+8nnw4119763 0.0 1020450
07:00+10nnw478292 0.0 1022541
10:00+15n35559 0.0 10231184
13:00+16nw354591 0.1 10231904
16:00+19nw463627 0.1 10222347
19:00+17wnw36529 0.0 1022510
22:00+13wsw2675100 0.0 1023119
19 june, sat
sat1901:00+13wsw41174100 0.1 1022398
04:00+11sw41087100 0.5 1021291
07:00+13wsw3992100 0.3 1021257
10:00+17w41075100 0.3 1019548
13:00+24w51052100 0.0 10171837
16:00+26w6114946 0.0 10152463
19:00+24w5105795 0.0 10151171
22:00+19w312815 0.0 1015320
20 june, sun
sun2001:00+19wnw3127772 0.0 1016430
04:00+18nw4128591 0.0 1017628
07:00+19nnw47745 0.0 1018706
10:00+22nnw58512 0.0 10191347
13:00+24nnw57385 0.0 10191666
16:00+24nnw47400 0.0 10191690
19:00+22n36560 0.0 1020450
22:00+15e22711 0.0 102122
21 june, mon
mon2101:00+14s226330 0.0 102122
04:00+15ene1160100 0.0 102122
07:00+15s258695 0.6 1020124
10:00+21sw357573 2.1 1019407
13:00+28w364538 0.0 10162346
16:00+29wnw473895 0.0 10152510
19:00+24wnw410640 0.0 1015454
22:00+20wnw397558 0.0 1016230